This is the latest recevied weather packets stored in our database for station/object IA5FYI-13. If no packets are shown the sender has not sent any weather packets the latest 10 day(s).
| Time | Temp. | Humidity | Pressure | Rain* | Wind** | Luminosity | Snow |
|---|---|---|---|---|---|---|---|
| 1778035813 | 16.11° C | 93% | 1008.1 hPa | 6.1 mm | - | - | - |
| 1778035512 | 16.11° C | 93% | 1007.8 hPa | 6.1 mm | - | - | - |
| 1778035215 | 16.11° C | 93% | 1007.8 hPa | 5.84 mm | - | - | - |
| 1778034910 | 16.11° C | 93% | 1008.1 hPa | 5.84 mm | - | - | - |
| 1778034623 | 16.11° C | 93% | 1008.1 hPa | 5.84 mm | - | - | - |
| 1778034310 | 16.11° C | 93% | 1008.1 hPa | 5.84 mm | - | - | - |
| 1778034014 | 16.11° C | 93% | 1008.1 hPa | 5.33 mm | - | - | - |
| 1778033713 | 17.22° C | 93% | 1008.5 hPa | 2.29 mm | - | - | - |
| 1778033415 | 17.22° C | 93% | 1008.1 hPa | 1.78 mm | - | - | - |
| 1778033110 | 17.22° C | 93% | 1008.1 hPa | 1.27 mm | - | - | - |
| 1778032833 | 17.22° C | 93% | 1008.5 hPa | 12.45 mm | - | - | - |
| 1778032510 | 17.22° C | 93% | 1008.1 hPa | 12.45 mm | - | - | - |
| 1778032213 | 16.11° C | 93% | 1008.5 hPa | 12.45 mm | - | - | - |
| 1778031913 | 17.22° C | 93% | 1008.5 hPa | 12.45 mm | - | - | - |
| 1778031614 | 17.22° C | 93% | 1008.5 hPa | 12.45 mm | - | - | - |
| 1778031310 | 17.22° C | 93% | 1008.5 hPa | 11.68 mm | - | - | - |
| 1778031022 | 17.22° C | 93% | 1008.5 hPa | 11.68 mm | - | - | - |
| 1778030710 | 17.22° C | 93% | 1008.5 hPa | 10.67 mm | - | - | - |
| 1778030413 | 17.22° C | 93% | 1008.8 hPa | 8.64 mm | - | - | - |
| 1778030113 | 17.22° C | 93% | 1008.8 hPa | 8.64 mm | - | - | - |
| 1778029813 | 17.22° C | 93% | 1008.8 hPa | 8.38 mm | - | - | - |
| 1778029510 | 17.22° C | 93% | 1008.8 hPa | 6.6 mm | - | - | - |
| 1778029231 | 17.22° C | 93% | 1008.8 hPa | 38.86 mm | - | - | - |
| 1778028909 | 17.22° C | 93% | 1008.8 hPa | 35.05 mm | - | - | - |
| 1778028613 | 17.78° C | 93% | 1008.8 hPa | 28.19 mm | - | - | - |
* Rain latest hour (hover to see other rain measurements)
** Current wind speed in m/s (hover to see current wind gust speed)